Wind_Speed
14 14 14 14 13 13 12 12 12 12 12 12 12 12 12 11 11 11 11 11 10 10 9 10 10 9 9 9 9 9 9 10 10 11 12 12 12 11 12 12 12 12 13
16 16 16 15 15 14 14 13 13 14 14 13 13 13 13 13 12 12 12 11 11 10 10 10 9 9 9 9 9 9 10 11 12 11 12 13 13 13 13 14 14 14 14
17 18 18 17 17 16 16 15 15 15 15 15 15 14 14 14 14 14 13 12 12 11 11 11 10 10 10 10 10 11 11 12 12 12 12 13 13 14 14 15 15 15 15
19 19 19 19 19 18 18 18 17 17 16 16 16 16 16 15 15 15 14 13 13 12 12 12 12 12 12 12 12 12 12 12 12 13 13 14 15 15 15 16 16 16 16
20 20 20 20 20 19 19 19 19 18 18 17 17 17 17 16 16 16 15 15 14 14 14 13 13 13 13 13 14 14 14 14 14 14 14 15 15 15 16 16 16 16 17
21 20 20 21 20 19 20 20 20 20 19 18 18 17 17 17 17 16 16 16 16 15 15 15 14 14 14 14 15 15 15 15 15 16 16 16 17 17 17 18 18 18 18
22 22 22 22 22 22 21 21 21 20 20 19 19 18 18 18 18 18 17 17 17 16 16 16 16 16 16 16 17 17 17 18 18 18 18 18 18 19 19 20 20 20 20
23 22 22 22 22 23 23 22 21 21 21 20 20 19 20 20 19 19 19 19 18 18 18 18 18 18 18 18 19 19 19 19 20 20 19 20 20 20 21 21 22 22 22
23 22 22 22 22 23 22 22 22 21 21 21 21 21 21 21 21 21 21 21 20 20 20 20 20 20 20 20 20 21 21 21 21 21 22 22 23 23 23 23 23 23 24
22 22 22 22 22 22 21 22 22 22 22 22 22 22 22 22 22 22 22 22 22 22 22 22 22 22 22 22 22 22 22 22 23 23 23 24 25 25 25 26 26 26 26
22 22 22 22 22 22 22 23 23 23 23 24 24 23 23 23 23 24 24 24 24 24 24 24 24 23 23 23 23 23 24 24 25 25 25 25 25 25 26 27 27 27 27
23 23 23 23 23 24 24 25 24 25 25 25 25 24 24 24 24 25 25 26 25 25 24 25 25 25 25 25 25 26 26 27 27 27 26 26 27 27 27 28 28 29 30
23 23 24 24 25 26 26 26 26 26 26 26 26 26 26 26 26 26 27 27 26 26 26 26 26 26 27 27 28 27 27 28 28 28 28 28 28 29 29 30 31 31 30
23 24 24 25 26 27 28 28 28 27 28 28 27 28 28 28 28 28 28 28 27 27 27 27 28 28 28 29 29 29 29 29 29 29 29 30 30 31 30 30 31 32 32
25 26 26 26 27 27 28 28 28 28 28 29 29 29 28 29 29 29 30 30 30 30 30 30 29 29 30 30 30 30 30 30 30 30 31 31 32 32 32 32 32 33 33
26 26 27 27 27 27 28 29 29 29 30 30 31 30 30 30 31 31 31 31 31 31 32 32 32 31 30 30 30 31 31 31 31 32 32 32 32 33 33 33 33 33 34
27 27 27 28 28 29 29 29 30 30 31 31 32 32 32 32 32 33 33 33 33 33 33 33 34 33 32 32 32 32 32 32 32 32 32 32 33 33 34 34 33 34 33
29 29 30 30 30 30 30 30 30 30 31 32 33 33 33 34 34 35 35 35 35 35 35 35 35 35 34 34 33 33 33 33 33 33 34 34 34 34 34 34 34 34 33
30 30 31 31 31 31 31 31 31 31 31 31 32 33 33 34 35 35 36 37 36 36 36 37 37 36 36 36 35 35 35 34 34 34 34 34 35 35 35 35 34 34 33
31 31 31 32 32 32 32 32 32 32 32 32 32 33 35 36 36 36 37 38 38 38 38 38 37 37 37 37 37 37 36 36 35 35 35 35 36 36 36 35 35 34 33
31 31 32 32 32 33 33 33 33 33 33 33 33 34 34 35 36 37 37 37 38 38 39 39 38 38 38 38 38 37 37 36 36 36 37 37 36 36 36 35 35 34 34
32 32 32 33 33 33 33 33 32 32 32 33 33 34 34 36 36 36 36 37 37 38 38 38 38 39 38 38 37 37 37 37 37 37 37 37 37 37 36 35 34 34 34
33 32 33 33 33 33 33 32 33 33 33 34 35 36 36 37 37 37 37 36 37 37 38 38 38 39 38 37 37 37 38 37 37 37 37 37 37 37 36 35 35 34 34
32 32 32 32 32 32 32 33 33 33 34 35 36 37 37 36 36 36 36 36 36 36 37 37 37 38 37 37 37 38 38 37 37 37 37 37 37 36 35 35 35 34 34
30 30 30 30 30 31 32 32 32 33 33 33 33 34 34 33 33 34 33 33 33 34 35 35 36 36 37 37 37 36 36 36 36 37 37 36 35 35 34 34 34 34 34
30 30 31 31 31 31 31 32 32 32 32 32 32 32 32 32 32 32 32 32 33 33 33 33 34 34 34 34 34 34 35 36 36 36 36 35 35 34 34 33 33 33 33
Wind_Direction
271 272 274 272 269 270 272 274 277 278 277 275 276 275 275 276 277 278 280 280 281 280 278 277 274 268 267 262 260 264 267 270 269 271 274 277 280 282 283 285 285 284 282
271 272 272 272 270 268 270 271 274 275 273 272 273 274 272 274 274 274 277 277 277 276 276 276 271 269 266 264 265 268 270 272 271 272 274 276 278 281 283 283 283 283 283
273 271 270 268 267 268 270 271 271 271 272 270 270 271 271 272 272 271 272 274 273 273 274 273 268 267 266 268 271 271 271 275 274 272 273 274 277 282 285 285 284 281 281
272 271 269 268 266 266 267 269 269 269 269 269 269 268 269 269 269 269 269 268 268 267 270 271 270 268 266 269 273 274 275 275 274 275 277 279 281 284 285 285 283 280 279
270 269 267 267 267 265 265 267 268 269 268 267 267 266 267 267 266 266 267 267 266 266 268 270 270 267 267 269 270 271 274 275 277 278 281 281 283 284 286 284 282 281 281
271 269 266 266 267 265 265 266 267 266 267 268 265 264 264 264 264 265 264 264 264 264 266 267 268 266 266 269 271 271 273 276 277 278 279 281 282 284 285 284 282 282 282
270 268 266 268 267 266 266 266 266 265 265 264 263 263 262 263 264 264 265 265 264 265 265 266 268 268 268 270 272 271 273 276 277 279 281 282 282 282 283 282 282 281 281
268 267 267 268 267 266 266 266 266 264 264 263 263 263 262 264 265 265 265 265 265 265 264 265 266 268 271 272 272 273 275 276 276 277 280 281 281 282 282 281 280 279 279
266 267 268 268 267 267 266 265 262 261 262 263 264 263 262 262 262 262 264 264 264 265 266 267 268 270 271 272 272 273 274 275 276 278 279 280 281 282 283 282 282 280 279
265 265 266 268 269 269 268 265 263 262 262 263 263 263 263 261 261 261 262 263 264 265 266 267 269 270 271 271 271 273 275 276 276 278 279 280 281 282 282 282 281 281 280
264 264 266 267 268 269 267 265 264 264 263 264 263 263 263 262 263 263 263 264 265 266 267 267 267 268 269 270 270 272 273 275 276 277 278 280 282 282 282 283 283 283 282
264 264 265 267 268 269 268 266 265 265 264 264 263 262 261 261 263 264 266 266 266 266 266 268 268 268 269 269 270 272 272 273 274 276 278 280 281 282 282 283 283 282 282
265 266 267 268 269 269 268 267 266 265 265 265 264 263 261 261 262 264 265 266 267 267 266 267 268 269 271 271 272 273 274 274 275 276 278 280 281 282 282 281 282 283 284
265 266 268 268 268 269 268 267 266 266 265 265 265 263 262 262 262 263 264 264 266 266 267 268 268 269 271 272 272 273 274 275 275 276 278 279 281 282 283 283 282 282 284
265 265 267 268 269 269 268 267 266 265 265 265 266 265 263 262 262 262 263 264 265 265 266 268 270 271 272 272 273 272 274 275 276 277 278 279 281 282 282 282 283 283 284
265 265 267 269 270 270 270 268 266 265 265 266 266 265 263 262 261 262 263 263 263 265 266 268 270 271 273 274 275 274 274 275 277 278 279 280 281 281 281 282 282 283 284
267 268 268 268 269 270 271 271 269 268 267 267 267 266 265 263 263 262 263 263 264 265 266 268 269 271 272 273 274 275 276 275 276 278 279 280 281 281 281 281 282 283 283
269 268 270 269 269 270 270 271 270 269 268 268 267 266 266 265 264 263 263 264 265 266 266 267 268 269 271 273 273 274 275 275 276 277 278 279 281 281 281 282 282 283 282
269 268 269 269 269 269 270 270 271 270 270 269 268 267 266 268 267 265 264 264 265 266 266 267 267 268 270 271 272 272 274 275 276 277 278 279 280 281 282 282 282 282 280
270 270 270 270 269 269 270 270 271 270 269 269 268 268 268 268 268 267 267 266 265 265 265 266 266 267 268 269 270 271 271 273 274 276 277 278 279 280 282 282 281 279 279
271 271 271 270 271 272 272 272 271 270 269 269 269 269 269 269 270 270 269 268 268 267 266 265 265 266 267 268 269 270 270 272 274 276 277 278 279 280 281 281 279 277 278
273 272 272 271 272 272 272 272 272 271 270 269 270 270 270 271 271 271 271 270 269 268 266 265 265 266 267 268 268 269 270 271 273 275 277 278 280 280 280 278 277 277 278
273 273 273 272 272 271 272 272 272 272 272 271 271 272 272 272 272 272 272 271 270 269 267 267 266 266 266 266 267 268 270 271 273 275 277 278 279 279 278 276 276 276 277
274 273 274 274 272 271 271 272 272 272 273 274 274 274 274 273 273 272 271 271 269 269 268 267 267 267 267 267 267 268 270 271 273 275 278 279 279 278 276 275 276 277 278
273 273 274 273 273 272 273 273 274 274 275 275 275 276 275 274 273 273 272 271 270 270 269 268 267 267 267 267 266 266 267 269 272 274 277 279 278 276 275 275 276 277 278
274 274 274 274 274 274 275 275 274 274 274 274 275 276 277 277 275 273 272 272 271 270 270 269 268 268 267 267 266 266 267 269 272 274 277 278 277 275 275 276 276 277 278
Height
5817 5816 5816 5815 5815 5815 5815 5814 5814 5814 5813 5813 5812 5812 5812 5811 5811 5810 5809 5809 5808 5808 5807 5807 5807 5806 5806 5806 5806 5806 5806 5806 5806 5806 5805 5805 5804 5803 5803 5802 5801 5800 5799
5812 5812 5811 5811 5811 5811 5811 5810 5810 5810 5809 5809 5809 5808 5808 5807 5807 5807 5806 5806 5805 5805 5804 5804 5804 5804 5804 5803 5803 5803 5803 5803 5803 5803 5802 5801 5800 5800 5799 5798 5797 5796 5795
5807 5807 5806 5806 5806 5806 5806 5806 5806 5805 5805 5805 5804 5804 5804 5803 5803 5803 5803 5802 5802 5801 5801 5801 5801 5801 5801 5800 5800 5800 5800 5800 5799 5799 5799 5798 5797 5796 5795 5794 5793 5792 5791
5801 5801 5801 5801 5801 5801 5801 5801 5800 5800 5800 5800 5800 5800 5799 5799 5799 5799 5799 5799 5798 5798 5798 5798 5797 5797 5797 5797 5797 5797 5796 5796 5796 5796 5795 5794 5793 5792 5791 5790 5789 5788 5787
5795 5795 5795 5795 5795 5795 5795 5795 5795 5795 5795 5795 5795 5795 5795 5795 5795 5794 5794 5794 5794 5794 5794 5794 5794 5794 5794 5793 5793 5793 5793 5792 5792 5791 5791 5790 5789 5788 5787 5786 5785 5784 5783
5788 5789 5789 5789 5788 5788 5789 5789 5789 5789 5789 5789 5789 5790 5790 5790 5790 5790 5790 5790 5790 5790 5790 5790 5790 5790 5789 5789 5789 5789 5789 5788 5788 5787 5786 5785 5784 5783 5782 5781 5780 5779 5778
5782 5782 5782 5782 5782 5782 5782 5782 5782 5782 5783 5783 5784 5784 5784 5784 5785 5785 5785 5785 5785 5785 5785 5785 5785 5785 5785 5785 5784 5784 5784 5783 5783 5782 5781 5780 5779 5778 5777 5776 5774 5773 5772
5775 5775 5775 5775 5775 5775 5775 5775 5776 5776 5776 5777 5778 5778 5778 5779 5779 5779 5779 5780 5780 5780 5780 5780 5780 5780 5780 5779 5779 5778 5778 5777 5777 5776 5775 5774 5773 5772 5771 5770 5768 5767 5766
5768 5768 5768 5768 5768 5768 5768 5768 5768 5769 5770 5770 5771 5771 5772 5772 5773 5773 5773 5774 5774 5774 5774 5774 5774 5774 5774 5773 5773 5772 5772 5771 5770 5770 5769 5768 5766 5765 5764 5763 5762 5760 5758
5760 5761 5761 5761 5761 5761 5761 5761 5761 5762 5763 5763 5764 5764 5765 5765 5766 5766 5767 5767 5767 5768 5768 5768 5768 5767 5767 5766 5766 5766 5765 5765 5764 5763 5762 5761 5759 5758 5757 5755 5754 5752 5751
5752 5753 5753 5754 5754 5754 5754 5754 5754 5755 5755 5756 5756 5757 5757 5758 5759 5759 5759 5760 5760 5760 5760 5761 5760 5760 5760 5760 5759 5759 5758 5757 5757 5756 5755 5753 5752 5751 5749 5748 5746 5744 5743
5745 5745 5746 5746 5746 5746 5746 5746 5746 5747 5747 5748 5748 5749 5749 5750 5751 5751 5751 5752 5752 5753 5753 5753 5753 5752 5752 5752 5751 5751 5750 5750 5749 5748 5746 5745 5744 5743 5741 5739 5738 5736 5734
5738 5738 5738 5738 5738 5738 5738 5738 5738 5738 5739 5739 5739 5740 5741 5742 5742 5743 5743 5744 5744 5744 5745 5745 5745 5744 5744 5743 5743 5742 5742 5741 5740 5739 5738 5737 5735 5734 5732 5730 5728 5726 5724
5730 5730 5730 5730 5730 5730 5729 5729 5729 5730 5730 5731 5731 5731 5732 5733 5733 5734 5734 5735 5735 5736 5736 5736 5736 5736 5735 5735 5734 5733 5732 5732 5731 5730 5729 5728 5726 5724 5722 5721 5719 5717 5715
5722 5722 5722 5721 5721 5721 5721 5720 5720 5721 5721 5721 5721 5721 5722 5723 5724 5724 5725 5726 5726 5726 5726 5726 5726 5726 5726 5725 5725 5724 5723 5722 5721 5720 5719 5718 5716 5714 5712 5710 5708 5706 5704
5713 5713 5713 5712 5712 5712 5711 5711 5711 5711 5711 5711 5711 5711 5712 5713 5713 5714 5714 5715 5715 5716 5716 5717 5716 5716 5716 5715 5714 5714 5713 5712 5711 5710 5708 5707 5705 5703 5702 5700 5697 5696 5694
5704 5703 5703 5703 5703 5702 5702 5702 5702 5701 5701 5701 5701 5701 5701 5702 5702 5703 5703 5704 5704 5705 5705 5706 5706 5705 5705 5704 5704 5703 5702 5701 5700 5699 5698 5696 5694 5693 5691 5689 5687 5685 5683
5694 5694 5693 5693 5693 5692 5692 5692 5691 5691 5691 5691 5691 5691 5690 5691 5690 5691 5691 5692 5693 5693 5694 5694 5694 5694 5694 5693 5693 5692 5691 5690 5689 5688 5686 5685 5683 5682 5680 5678 5676 5674 5672
5683 5683 5683 5683 5682 5682 5682 5681 5681 5681 5681 5681 5680 5680 5680 5679 5679 5679 5679 5680 5681 5681 5682 5682 5682 5682 5682 5681 5681 5680 5680 5679 5678 5676 5675 5674 5672 5670 5668 5667 5665 5663 5661
5673 5672 5672 5672 5671 5671 5671 5670 5670 5670 5669 5669 5669 5669 5669 5668 5667 5667 5667 5667 5668 5668 5669 5669 5669 5669 5669 5668 5668 5668 5668 5667 5666 5664 5663 5662 5660 5658 5657 5655 5653 5652 5650
5662 5661 5661 5661 5660 5660 5660 5659 5659 5658 5658 5658 5658 5657 5657 5656 5656 5655 5655 5655 5655 5655 5655 5655 5655 5655 5655 5655 5655 5655 5655 5654 5653 5652 5651 5650 5648 5646 5645 5643 5641 5640 5639
5651 5650 5650 5650 5650 5649 5648 5648 5647 5647 5646 5646 5646 5645 5645 5644 5644 5643 5642 5642 5641 5641 5641 5641 5641 5642 5642 5642 5642 5642 5642 5642 5641 5640 5639 5638 5636 5634 5632 5631 5630 5629 5628
5640 5639 5639 5638 5638 5637 5637 5636 5636 5636 5635 5635 5634 5633 5633 5632 5631 5630 5629 5629 5628 5628 5628 5628 5628 5628 5628 5628 5628 5629 5629 5629 5629 5628 5627 5625 5623 5622 5620 5619 5618 5617 5616
5629 5628 5628 5627 5626 5626 5626 5625 5625 5624 5623 5623 5622 5621 5620 5619 5618 5617 5616 5616 5615 5615 5615 5614 5614 5615 5615 5615 5615 5616 5616 5616 5616 5615 5614 5613 5611 5610 5608 5607 5606 5605 5604
5618 5618 5617 5616 5616 5615 5615 5614 5614 5613 5612 5611 5610 5609 5608 5607 5606 5605 5604 5603 5603 5603 5602 5602 5601 5601 5602 5602 5602 5603 5603 5603 5603 5602 5602 5600 5599 5598 5597 5596 5595 5594 5593
5608 5608 5607 5606 5605 5605 5604 5603 5602 5601 5600 5600 5599 5598 5597 5595 5595 5593 5592 5592 5591 5590 5590 5589 5589 5589 5589 5589 5590 5590 5591 5591 5591 5590 5589 5588 5587 5586 5585 5585 5584 5583 5581